Total_Precipitation_Accumulation
1.51 1.52 1.57 1.55 1.64 1.78 1.83 1.79 1.87 1.95 2.04 2.01 1.92 1.84 1.70 1.61 1.64 1.70 1.58 1.69 1.73 1.72 1.74 1.79 1.82 1.94 2.10 2.11 2.16 2.20 2.42 2.67 2.55 2.35 2.20 2.02 1.90 1.78 1.62 1.62 1.61 1.53 1.32
1.43 1.44 1.54 1.63 1.63 1.59 1.59 1.60 1.64 1.67 1.70 1.70 1.67 1.66 1.67 1.70 1.75 1.66 1.59 1.60 1.65 1.61 1.67 1.79 1.72 1.90 2.07 2.04 2.15 2.17 2.35 2.65 2.75 2.84 2.84 2.54 2.23 2.04 1.95 1.78 1.45 1.34 1.35
1.46 1.43 1.52 1.51 1.47 1.52 1.64 1.68 1.64 1.64 1.62 1.60 1.59 1.56 1.57 1.72 1.83 1.79 1.73 1.74 1.77 1.67 1.73 1.78 1.68 1.77 1.84 1.88 2.00 2.12 2.30 2.49 2.70 2.70 2.75 2.60 2.42 2.15 2.24 1.98 1.68 1.60 1.27
1.40 1.49 1.59 1.60 1.60 1.69 1.75 1.79 1.74 1.67 1.68 1.73 1.69 1.62 1.62 1.58 1.63 1.74 1.80 1.79 1.76 1.70 1.68 1.64 1.54 1.54 1.62 1.77 1.80 1.97 2.18 2.37 2.51 2.48 2.53 2.60 2.65 2.61 2.62 2.40 2.22 1.97 1.60
1.36 1.54 1.61 1.63 1.65 1.67 1.65 1.71 1.72 1.64 1.61 1.78 1.75 1.68 1.65 1.59 1.47 1.52 1.64 1.61 1.65 1.62 1.56 1.41 1.24 1.26 1.36 1.43 1.44 1.76 2.02 2.14 2.24 2.31 2.39 2.57 2.70 2.90 2.73 2.62 2.51 2.39 2.07
1.21 1.36 1.41 1.50 1.60 1.57 1.51 1.56 1.58 1.63 1.67 1.71 1.68 1.67 1.58 1.31 1.32 1.32 1.30 1.35 1.43 1.45 1.47 1.46 1.30 1.15 1.09 1.15 1.16 1.33 1.62 1.78 1.97 2.23 2.37 2.56 2.66 2.70 2.87 2.83 2.78 2.62 2.39
1.11 1.19 1.28 1.41 1.49 1.50 1.43 1.50 1.60 1.64 1.62 1.54 1.48 1.48 1.44 1.34 1.20 1.07 1.05 1.19 1.35 1.40 1.43 1.45 1.23 1.08 1.11 1.02 1.10 1.19 1.24 1.32 1.45 1.81 2.08 2.20 2.26 2.33 2.62 2.75 2.76 2.65 2.56
1.08 1.20 1.29 1.43 1.46 1.49 1.48 1.44 1.49 1.50 1.51 1.53 1.41 1.38 1.45 1.34 1.23 1.03 0.92 0.93 1.12 1.19 1.20 1.23 1.24 1.24 1.17 1.17 1.16 1.19 1.13 1.13 1.19 1.24 1.40 1.57 1.82 2.03 2.26 2.50 2.76 2.72 2.67
1.09 1.24 1.37 1.51 1.56 1.56 1.56 1.52 1.53 1.53 1.49 1.48 1.46 1.48 1.48 1.42 1.33 1.13 1.04 1.08 1.21 1.24 1.26 1.26 1.30 1.35 1.32 1.16 1.13 1.19 1.21 1.25 1.19 1.22 1.19 1.24 1.36 1.49 1.67 1.94 2.27 2.59 2.82
1.17 1.29 1.42 1.51 1.63 1.61 1.67 1.70 1.66 1.58 1.51 1.48 1.54 1.56 1.50 1.47 1.33 1.12 1.09 1.17 1.37 1.46 1.57 1.55 1.43 1.28 1.25 1.11 1.13 1.25 1.23 1.23 1.16 1.14 1.10 1.07 1.08 1.21 1.35 1.53 1.78 2.11 2.38
1.29 1.37 1.49 1.57 1.62 1.62 1.69 1.75 1.72 1.66 1.67 1.58 1.49 1.50 1.52 1.40 1.16 0.93 0.94 1.04 1.28 1.50 1.53 1.50 1.37 1.17 1.05 1.03 1.01 1.10 1.18 1.12 1.11 1.18 1.23 1.22 1.22 1.26 1.31 1.38 1.63 1.82 1.93
1.41 1.43 1.52 1.63 1.49 1.48 1.72 1.80 1.80 1.82 1.81 1.69 1.59 1.50 1.53 1.50 1.21 0.98 0.92 0.99 1.16 1.43 1.60 1.52 1.35 1.18 1.06 1.01 0.90 0.95 1.00 0.93 0.99 1.14 1.21 1.24 1.25 1.24 1.31 1.42 1.59 1.77 1.92
1.47 1.52 1.55 1.59 1.69 1.78 1.83 1.87 1.84 1.79 1.78 1.73 1.68 1.60 1.59 1.64 1.56 1.25 1.09 1.06 1.15 1.24 1.38 1.50 1.37 1.13 0.98 0.92 0.90 0.83 0.75 0.76 0.90 0.99 1.06 1.12 1.13 1.17 1.27 1.43 1.64 1.77 1.81
1.61 1.68 1.69 1.68 1.73 1.88 2.04 2.02 1.94 1.79 1.80 1.82 1.74 1.73 1.76 1.77 1.69 1.48 1.32 1.21 1.22 1.21 1.22 1.22 1.19 1.08 0.93 0.94 0.96 0.85 0.76 0.82 0.87 0.88 0.93 1.01 1.04 1.12 1.25 1.34 1.50 1.69 1.82
1.81 1.80 1.81 1.85 1.88 1.95 1.94 1.89 1.86 1.79 1.70 1.75 1.78 1.77 1.77 1.75 1.62 1.49 1.40 1.36 1.33 1.26 1.19 1.23 1.19 1.21 1.10 1.05 1.07 1.03 0.99 1.02 0.99 0.94 0.95 0.98 1.04 1.10 1.15 1.26 1.39 1.48 1.59
2.12 2.02 1.99 1.97 1.98 1.95 1.96 1.79 1.61 1.52 1.45 1.38 1.42 1.43 1.41 1.39 1.33 1.24 1.20 1.17 1.16 1.14 1.05 1.17 1.29 1.31 1.28 1.27 1.26 1.24 1.21 1.18 1.17 1.19 1.17 1.13 1.13 1.15 1.14 1.18 1.30 1.36 1.35
2.25 2.21 2.12 2.03 1.94 1.87 1.90 1.90 1.78 1.63 1.59 1.44 1.30 1.23 1.20 1.15 1.10 1.05 1.04 1.06 1.06 1.05 1.02 1.16 1.31 1.36 1.37 1.38 1.32 1.29 1.32 1.27 1.27 1.28 1.25 1.25 1.27 1.28 1.24 1.23 1.30 1.37 1.34
2.15 2.11 2.04 2.00 1.91 1.85 1.87 1.91 1.81 1.77 1.76 1.64 1.45 1.34 1.20 1.05 0.99 0.99 1.04 1.06 1.07 1.05 1.13 1.30 1.46 1.45 1.46 1.45 1.36 1.30 1.31 1.27 1.24 1.23 1.25 1.25 1.27 1.31 1.32 1.29 1.28 1.35 1.35
2.06 2.00 1.95 1.92 1.95 1.97 1.97 1.99 1.94 1.92 1.93 1.85 1.65 1.49 1.35 1.11 0.99 1.01 1.03 1.01 1.11 1.21 1.29 1.40 1.43 1.41 1.43 1.41 1.34 1.31 1.33 1.31 1.27 1.28 1.25 1.26 1.27 1.35 1.36 1.33 1.28 1.31 1.27
2.06 2.04 1.96 1.84 1.80 1.89 1.97 1.92 1.91 1.97 1.94 1.87 1.80 1.60 1.34 1.17 1.09 1.10 1.06 1.08 1.18 1.24 1.27 1.28 1.27 1.27 1.29 1.31 1.32 1.35 1.40 1.38 1.36 1.35 1.28 1.26 1.27 1.31 1.31 1.30 1.27 1.25 1.23
1.79 1.73 1.66 1.55 1.52 1.57 1.70 1.76 1.79 1.90 1.88 1.78 1.67 1.55 1.33 1.11 1.13 1.17 1.18 1.17 1.19 1.21 1.21 1.21 1.19 1.16 1.14 1.20 1.25 1.28 1.31 1.33 1.29 1.24 1.21 1.20 1.18 1.22 1.19 1.16 1.17 1.14 1.14
1.69 1.65 1.55 1.48 1.51 1.58 1.66 1.70 1.79 1.85 1.81 1.74 1.58 1.43 1.33 1.14 1.10 1.09 1.07 1.05 1.05 1.06 1.08 1.16 1.19 1.16 1.13 1.17 1.21 1.22 1.21 1.16 1.12 1.08 1.05 1.03 1.05 1.10 1.11 1.11 1.15 1.14 1.13
1.84 1.76 1.74 1.71 1.62 1.68 1.67 1.71 1.79 1.75 1.69 1.68 1.60 1.45 1.35 1.33 1.25 1.17 1.09 1.03 1.00 0.99 0.99 1.02 1.04 1.02 1.02 1.03 1.06 1.06 1.01 0.98 0.95 0.89 0.89 0.93 0.96 1.01 1.03 1.05 1.11 1.15 1.13
1.91 1.86 1.74 1.64 1.58 1.57 1.60 1.70 1.74 1.65 1.54 1.52 1.48 1.38 1.35 1.33 1.26 1.17 1.02 0.94 0.93 0.90 0.88 0.87 0.84 0.79 0.80 0.83 0.87 0.89 0.85 0.82 0.80 0.81 0.82 0.88 0.91 0.94 0.95 0.98 1.05 1.10 1.10
1.73 1.77 1.75 1.66 1.55 1.46 1.43 1.46 1.45 1.41 1.36 1.34 1.34 1.32 1.31 1.22 1.12 1.02 0.93 0.92 0.93 0.89 0.81 0.77 0.77 0.77 0.75 0.74 0.74 0.76 0.80 0.81 0.82 0.78 0.78 0.84 0.89 0.94 0.95 0.98 1.05 1.12 1.11
1.57 1.56 1.50 1.42 1.30 1.23 1.21 1.23 1.23 1.18 1.15 1.10 1.08 1.08 1.03 1.00 0.97 0.90 0.83 0.81 0.82 0.81 0.77 0.74 0.75 0.77 0.79 0.76 0.72 0.71 0.69 0.67 0.70 0.72 0.68 0.69 0.79 0.89 0.89 0.86 0.86 0.95 0.98